Theta_e
337 338 337 337 336 337 343 339 340 344 342 339 341 345 354 351 352 352 351 350 349 348 347 345 345 344 344 344 346 346 347 347 348 347 350 355 354 352 350 352 351 354 352 354
333 333 332 331 334 332 333 335 341 344 342 344 337 341 350 352 348 352 353 352 351 350 348 348 345 343 342 346 347 348 347 348 350 353 352 352 353 353 353 353 352 355 353 354
329 330 330 329 328 328 330 332 334 344 342 343 336 346 351 350 347 346 349 351 352 351 349 349 347 343 344 347 348 351 347 348 348 349 351 351 354 352 351 347 350 354 356 355
328 328 328 327 326 327 327 329 330 331 334 339 338 349 352 345 344 348 346 348 350 351 350 349 347 344 345 347 349 351 346 352 349 348 355 355 355 354 350 346 343 355 357 357
326 327 327 327 327 328 328 329 329 329 331 334 338 339 351 347 346 351 346 348 347 351 351 349 348 346 344 346 349 352 350 354 353 350 354 356 355 355 352 341 345 353 355 356
327 328 327 326 327 328 330 329 329 330 330 333 334 337 345 347 348 341 337 340 345 348 351 351 348 346 345 346 349 350 355 355 357 358 354 356 358 354 357 352 350 353 355 356
329 328 328 327 327 330 332 330 331 331 331 332 333 339 343 340 338 337 338 336 337 344 353 352 350 347 346 345 347 349 355 358 358 361 360 354 355 359 355 354 352 357 356 356
329 328 328 329 331 331 331 330 330 334 332 331 333 334 336 333 339 340 341 340 343 341 352 352 352 348 347 346 347 348 355 359 360 358 362 362 357 360 360 357 358 358 352 353
334 332 332 330 330 330 330 331 330 330 329 328 329 331 334 336 338 341 345 347 349 347 348 352 350 348 348 347 348 349 355 359 360 362 360 363 363 361 358 358 356 354 356 352
331 333 333 332 332 332 331 331 329 329 332 332 334 340 342 340 338 341 348 351 355 353 349 352 352 350 350 348 349 350 355 360 361 362 362 363 364 363 361 359 359 356 354 354
330 332 333 333 333 333 332 330 328 329 332 331 329 337 339 342 342 344 348 356 356 354 351 353 352 351 349 349 349 351 357 360 362 361 361 362 362 363 363 362 361 360 353 359
331 332 331 330 331 331 330 327 327 328 331 331 333 345 339 339 345 348 353 355 357 355 354 354 353 351 350 349 349 350 354 360 360 358 359 362 361 361 363 361 361 359 360 356
333 333 330 331 332 332 332 331 330 329 329 330 330 339 337 341 346 348 351 356 350 342 346 351 346 344 342 341 346 350 351 354 355 358 360 360 360 361 362 362 361 361 360 360
328 327 327 329 331 332 333 332 331 329 329 330 331 337 338 338 343 346 348 351 356 349 342 344 345 355 356 347 350 354 353 355 355 356 357 357 359 359 359 360 360 360 361 360
330 330 330 330 330 330 331 330 328 328 329 329 329 329 331 331 334 345 344 347 351 357 353 348 353 358 354 359 356 355 355 355 355 356 359 361 361 359 361 357 362 360 360 363
331 332 332 332 331 331 331 331 331 329 327 326 326 327 329 329 336 339 345 345 348 353 359 360 358 358 357 360 360 360 362 363 360 357 346 350 357 359 360 362 360 361 361 360
330 330 332 333 332 332 333 332 330 328 328 327 327 327 328 328 330 334 340 349 347 350 357 361 359 358 358 357 360 361 361 350 343 341 339 335 334 335 355 358 354 359 360 361
330 331 331 332 333 335 333 331 329 327 327 326 331 328 328 328 332 338 344 352 350 351 350 354 355 355 351 346 344 357 355 349 341 341 339 339 335 339 336 337 333 333 352 360
331 330 331 333 332 332 331 331 330 331 333 333 338 336 336 335 336 347 346 349 350 351 350 349 346 345 348 349 352 344 348 346 344 344 338 335 333 338 347 342 334 333 355 362
330 329 330 331 334 335 333 332 332 331 332 338 339 340 341 343 343 351 343 337 335 344 349 349 345 347 344 347 350 354 352 355 359 362 360 357 354 352 351 352 355 359 361 363
335 335 332 332 332 332 333 332 331 333 338 335 334 334 334 336 336 337 338 340 337 342 343 347 346 348 347 344 347 351 353 354 350 350 353 351 350 350 350 348 349 347 350 349
336 337 337 337 338 336 334 333 334 336 333 333 333 332 332 332 331 331 333 338 340 341 339 341 347 350 348 348 345 349 354 354 350 350 350 351 350 348 346 347 345 344 349 346
335 334 336 336 337 335 334 333 332 331 332 332 332 331 331 330 330 332 333 334 334 334 334 334 337 341 338 339 338 350 352 352 347 349 350 351 352 351 350 349 350 348 344 348
334 334 335 336 334 333 332 332 332 332 331 331 331 330 330 330 329 331 331 330 332 331 331 331 332 333 333 347 346 345 342 331 347 343 343 345 346 345 346 348 350 350 348 344
332 334 336 336 335 335 333 332 333 333 332 331 330 329 329 329 330 331 331 332 332 331 331 331 333 333 335 333 336 342 339 342 340 339 339 339 339 339 340 344 340 341 339 338
332 334 334 335 334 335 335 333 332 332 331 330 329 329 329 329 331 331 332 332 332 332 331 331 332 332 332 330 330 337 337 337 337 337 336 333 331 329 329 328 328 328 329 334
Wind_Speed
17 14 13 20 16 7 20 16 14 18 19 18 8 0 17 14 19 17 19 18 20 20 21 27 27 26 24 26 25 27 25 23 30 25 21 16 15 16 16 14 15 14 8 7
15 12 14 14 17 11 14 15 1 12 19 22 15 4 8 6 12 19 18 20 19 20 19 19 26 25 25 24 25 27 22 26 29 25 21 19 19 19 17 17 16 18 9 9
16 15 15 9 13 13 16 14 16 7 17 25 15 10 17 1 19 5 12 17 19 20 19 20 21 25 26 24 26 26 27 27 27 20 19 20 15 13 10 14 12 14 12 11
11 11 10 10 14 14 14 13 15 15 10 13 9 4 4 10 21 6 7 11 16 18 18 19 19 26 26 25 27 27 31 25 27 27 21 22 20 17 21 13 26 22 15 13
13 5 7 10 10 11 12 14 11 14 14 16 17 7 8 12 11 13 13 12 13 18 19 19 19 26 28 28 27 27 31 27 26 29 24 19 18 15 15 12 17 14 13 15
12 9 4 12 12 12 11 12 15 13 12 11 16 6 11 6 18 11 9 10 12 16 19 17 24 26 26 28 29 27 30 30 26 28 30 22 16 21 10 20 21 18 15 14
17 15 10 4 12 18 14 14 10 8 9 9 20 10 9 23 16 8 6 2 7 12 19 17 20 18 25 26 30 29 30 29 29 25 27 30 24 18 17 14 17 20 14 17
10 6 6 6 5 11 12 14 7 10 8 8 6 3 13 6 14 8 8 7 4 7 19 19 18 19 25 25 30 29 32 31 29 31 25 25 29 22 18 16 18 20 17 23
9 3 6 1 5 8 9 10 16 13 9 9 7 1 15 15 13 9 11 8 9 13 18 20 19 22 25 25 28 31 32 33 33 29 27 24 23 24 22 21 19 17 14 22
14 8 2 11 11 16 7 8 9 6 8 8 8 12 8 12 10 10 13 8 7 11 11 18 15 20 26 28 27 31 32 35 32 30 27 25 23 23 24 21 19 18 16 11
11 10 15 8 6 8 5 11 12 13 9 9 8 5 12 10 8 9 11 9 5 5 7 19 21 24 24 26 27 29 29 31 28 28 25 25 24 23 23 22 23 19 21 10
14 9 9 14 15 10 6 7 9 8 6 11 10 6 19 6 11 9 9 7 6 8 12 8 8 7 13 22 22 23 29 30 30 26 24 25 23 23 23 24 21 24 21 21
11 8 10 12 5 6 3 6 9 10 11 12 9 3 11 8 10 7 9 9 3 2 4 7 16 16 27 36 45 25 27 27 24 24 24 22 23 21 21 23 23 23 25 23
4 12 14 12 15 14 11 10 10 11 11 13 13 6 11 9 10 9 8 5 5 1 3 2 10 14 23 12 54 11 21 24 23 22 22 23 19 22 22 22 26 24 26 29
5 11 12 14 16 17 15 14 15 14 13 14 17 18 13 12 6 9 4 4 2 4 7 3 2 11 24 25 12 11 9 12 17 16 11 9 3 9 15 20 19 27 26 28
9 12 12 14 15 15 16 14 18 18 15 16 15 17 14 12 5 6 6 2 5 7 4 2 6 7 8 10 6 7 5 21 25 23 23 15 8 7 13 10 12 12 21 27
13 11 11 14 14 15 14 15 10 7 8 10 11 12 11 5 4 6 5 10 5 1 7 4 5 10 13 13 12 12 15 21 17 12 8 21 25 35 8 4 8 14 22 23
14 12 9 11 12 14 14 4 3 7 9 10 10 9 11 8 5 7 10 12 12 7 1 2 8 16 19 19 13 15 14 9 10 18 18 21 16 14 17 14 12 22 30 31
11 9 8 8 11 14 16 5 2 2 7 12 13 13 11 7 5 14 23 16 9 8 4 6 7 10 14 22 18 16 15 13 12 13 20 19 17 16 9 5 10 19 45 30
6 9 7 9 11 12 7 8 7 6 6 11 12 14 17 16 8 7 14 18 29 38 11 13 15 10 8 13 18 22 26 25 21 18 16 15 15 8 2 5 8 15 16 18
9 7 9 9 10 9 4 6 4 6 4 8 8 10 12 12 10 10 12 13 21 35 23 27 13 17 18 16 17 14 14 14 15 14 14 13 10 9 9 8 7 8 10 13
10 8 8 10 11 12 9 4 3 4 4 9 9 9 11 13 14 13 10 1 3 8 15 22 22 17 14 7 19 12 14 12 13 10 9 10 11 11 10 13 9 9 11 13
10 12 8 7 7 2 1 5 6 6 6 9 10 12 12 15 15 13 8 10 11 13 12 16 17 17 5 14 11 1 16 8 12 11 11 12 12 12 12 11 11 13 14 17
12 9 9 9 8 10 14 10 8 8 6 7 10 13 14 15 16 14 13 13 10 14 16 19 21 11 11 18 20 23 32 29 22 11 11 13 14 13 14 17 19 19 19 17
13 0 3 7 10 13 13 9 7 8 8 11 12 12 12 13 13 14 13 13 12 16 16 18 18 20 12 10 4 21 21 19 14 12 15 16 16 18 21 24 23 22 20 20
9 12 8 10 9 9 7 9 11 11 12 14 11 11 12 14 15 15 12 13 15 16 19 19 19 24 20 17 14 9 9 20 16 13 15 16 17 17 12 13 16 18 20 25
Wind_Direction
253 244 261 274 319 313 201 281 327 11 338 324 288 332 147 166 168 181 185 191 190 197 194 201 193 190 199 183 182 177 183 185 181 181 188 207 208 210 212 215 224 199 189 195
249 267 260 272 293 340 298 288 341 46 323 293 276 345 143 117 189 177 188 187 197 191 197 192 186 198 193 189 179 175 189 174 175 175 184 206 211 209 217 224 235 200 177 181
270 286 318 326 317 295 282 285 286 170 229 255 255 60 73 10 340 203 192 194 190 191 195 182 191 194 188 188 175 175 186 184 182 183 191 210 214 229 239 220 210 221 184 184
258 285 305 320 285 272 281 324 340 324 308 280 246 124 1 140 263 305 213 196 188 189 192 182 188 187 195 185 178 178 186 187 186 191 198 208 207 206 207 273 247 213 175 190
278 199 289 266 283 1 302 310 317 290 280 282 273 269 124 188 271 264 203 198 209 180 186 191 186 187 201 185 180 182 182 190 192 195 210 214 215 226 172 202 269 248 195 196
263 283 246 287 328 281 276 277 261 248 246 262 266 261 125 189 228 186 147 193 190 194 180 193 178 186 192 188 183 187 183 190 196 193 207 214 213 228 175 171 205 223 198 202
215 220 210 196 276 272 245 264 279 240 228 243 14 66 164 217 201 84 109 287 226 196 172 184 174 183 182 193 183 186 183 189 196 200 200 213 214 228 231 198 205 215 183 194
296 163 159 143 313 348 326 310 311 327 291 325 121 263 141 229 94 66 79 329 1 281 172 177 171 177 177 193 182 184 183 187 195 201 208 209 217 217 216 216 227 213 209 201
341 74 138 193 351 315 327 303 355 314 312 303 306 109 128 87 78 68 60 32 6 304 172 168 178 176 176 188 184 185 183 186 191 199 207 211 213 214 217 219 226 228 245 194
318 294 238 142 221 227 227 342 308 308 283 288 2 71 86 65 51 64 61 41 22 331 181 163 182 175 176 182 189 187 185 183 191 195 202 211 214 215 219 224 221 216 227 186
303 294 301 290 275 13 336 311 312 313 282 314 289 95 117 115 82 55 71 60 51 329 209 176 177 174 179 183 188 187 182 180 188 196 201 208 214 216 219 226 219 214 217 218
315 317 289 290 285 94 339 297 270 285 290 292 308 53 356 11 87 80 88 79 63 19 340 335 76 61 159 180 182 192 185 179 185 199 207 204 208 214 212 216 221 212 213 215
345 328 327 305 97 109 218 0 351 306 289 289 288 126 236 141 98 60 61 96 80 305 286 315 59 50 60 342 308 186 191 186 187 190 199 210 200 211 217 213 219 211 211 215
322 272 266 283 319 329 315 311 309 304 303 311 304 160 73 280 128 115 81 52 109 190 207 138 123 110 102 152 260 157 184 178 187 192 198 197 208 205 210 218 213 220 215 212
273 280 296 304 313 316 316 307 299 289 283 285 299 312 315 336 87 98 92 114 143 179 202 154 242 119 159 190 147 170 193 182 185 189 130 84 144 229 219 223 220 214 219 219
265 283 272 273 273 275 278 288 278 272 268 276 276 282 287 295 117 148 154 193 191 180 274 69 100 132 157 127 142 153 152 118 133 126 87 16 78 275 265 255 244 250 240 232
282 288 299 294 311 306 289 275 288 327 322 324 301 309 295 289 331 331 205 161 271 129 161 169 169 156 148 160 154 150 133 132 135 140 176 230 219 228 257 203 339 289 259 251
274 274 278 274 280 269 277 312 334 307 300 283 306 318 328 331 12 331 353 158 183 170 343 244 215 166 167 162 164 180 167 175 231 238 232 197 189 220 228 233 257 329 309 259
251 264 275 279 266 264 270 13 9 35 345 2 348 356 360 345 291 36 21 15 9 96 198 249 240 57 125 129 144 160 171 181 176 181 190 192 199 205 208 140 92 195 252 253
254 276 259 266 288 288 348 72 23 357 270 21 360 356 360 351 18 29 37 38 8 332 223 225 214 147 137 154 162 166 172 177 182 172 176 183 201 209 214 209 200 224 246 258
216 222 269 262 254 267 25 59 19 268 44 356 14 357 356 353 6 21 103 102 137 254 358 334 210 171 185 196 179 182 177 172 165 158 166 174 182 188 192 203 227 254 271 282
270 264 238 245 256 261 40 327 323 49 20 6 347 344 330 328 329 339 349 4 243 312 320 317 324 306 15 250 171 170 178 190 165 166 189 197 200 210 225 204 219 256 273 282
247 247 276 305 335 42 4 15 50 13 341 326 336 332 331 318 316 317 311 321 328 324 305 290 296 323 250 198 270 284 332 162 179 197 209 231 229 224 233 243 241 248 261 252
255 228 234 256 272 334 326 332 327 304 313 349 326 321 317 313 314 319 327 323 314 312 311 310 312 311 312 194 200 173 198 219 225 207 227 237 239 242 247 246 246 241 248 244
277 275 287 267 273 279 270 293 1 355 330 314 305 309 311 311 317 318 312 312 311 312 309 307 309 312 298 300 316 178 189 191 203 213 229 232 234 238 240 240 241 246 254 263
264 275 265 269 276 289 321 334 324 318 313 307 306 302 309 312 305 302 301 307 316 323 326 324 319 312 289 298 297 278 205 188 187 220 229 235 240 252 257 277 284 283 282 268